This is the latest recevied weather packets stored in our database for station/object DL9TPA-1. If no packets are shown the sender has not sent any weather packets the latest 10 day(s).
| Time | Temp. | Humidity | Pressure | Rain* | Wind** | Luminosity | Snow |
|---|---|---|---|---|---|---|---|
| 1777886906 | 27.22° C | 46% | 1013.5 hPa | 0 mm | - | - | - |
| 1777886301 | 26.67° C | 46% | 1013.6 hPa | 0 mm | - | - | - |
| 1777885700 | 26.67° C | 46% | 1013.6 hPa | 0 mm | - | - | - |
| 1777885099 | 26.11° C | 50% | 1013.5 hPa | 0 mm | - | - | - |
| 1777884496 | 23.89° C | 49% | 1013.5 hPa | 0 mm | - | - | - |
| 1777883894 | 22.78° C | 53% | 1013.5 hPa | 0 mm | - | - | - |
| 1777883292 | 21.67° C | 53% | 1013.5 hPa | 0 mm | - | - | - |
| 1777882690 | 21.11° C | 55% | 1013.3 hPa | 0 mm | - | - | - |
| 1777882089 | 20.56° C | 55% | 1013.3 hPa | 0 mm | - | - | - |
| 1777881487 | 20.56° C | 56% | 1013.5 hPa | 0 mm | - | - | - |
| 1777880885 | 19.44° C | 57% | 1013.3 hPa | 0 mm | - | - | - |
| 1777880281 | 19.44° C | 58% | 1013.2 hPa | 0 mm | - | - | - |
| 1777879681 | 18.89° C | 60% | 1013.1 hPa | 0 mm | - | - | - |
| 1777879076 | 17.78° C | 61% | 1013 hPa | 0 mm | - | - | - |
| 1777878476 | 17.78° C | 61% | 1013.1 hPa | 0 mm | - | - | - |
| 1777877874 | 17.78° C | 61% | 1013.1 hPa | 0 mm | - | - | - |
| 1777877270 | 17.78° C | 61% | 1013.1 hPa | 0 mm | - | - | - |
| 1777876668 | 17.22° C | 63% | 1013 hPa | 0 mm | - | - | - |
| 1777876067 | 16.67° C | 64% | 1012.9 hPa | 0 mm | - | - | - |
| 1777875464 | 16.67° C | 63% | 1012.9 hPa | 0 mm | - | - | - |
| 1777874863 | 16.67° C | 62% | 1012.9 hPa | 0 mm | - | - | - |
| 1777874260 | 16.67° C | 63% | 1012.9 hPa | 0 mm | - | - | - |
| 1777873659 | 16.67° C | 63% | 1012.9 hPa | 0 mm | - | - | - |
| 1777873056 | 16.67° C | 64% | 1012.9 hPa | 0 mm | - | - | - |
| 1777872454 | 15.56° C | 67% | 1013 hPa | 0 mm | - | - | - |
* Rain latest hour (hover to see other rain measurements)
** Current wind speed in m/s (hover to see current wind gust speed)